Weather History for Lebanon, NH

Change the Weather History Date:

Sunday, October 20, 2013

  Actual Average Record
Temperature  
Mean Temperature 47 °F -  
Max Temperature 59 °F 55 °F 77 °F (1965)
Min Temperature 35 °F 36 °F 17 °F (1972)
Degree Days  
Heating Degree Days 18    
Moisture  
Dew Point 36 °F    
Average Humidity 60    
Maximum Humidity 89    
Minimum Humidity 33    
Precipitation  
Precipitation 0.02 in - - ()
Sea Level Pressure  
Sea Level Pressure 29.81 in    
Wind  
Wind Speed 8 mph (SW)    
Max Wind Speed 16 mph    
Max Gust Speed 24 mph    
Visibility 10 miles    
Events Rain    
Averages and records for this station are not official NWS values.
T = Trace of Precipitation, MM = Missing Value Source: NWS Daily Summary

Daily Weather History Graph

Daily Weather History Graph

Search for Another Location

Airport:

Trip Planner

Search our weather history database for the weather conditions in past years. The results will help you decide how hot, cold, wet, or windy it might be!

Date:

Astronomy

Oct. 20, 2013 Rise Set
Actual Time 7:09 AM EDT 5:57 PM EDT
Civil Twilight 6:40 AM EDT 6:26 PM EDT
Nautical Twilight 6:07 AM EDT 6:59 PM EDT
Astronomical Twilight 5:34 AM EDT 7:32 PM EDT
Moon 7:00 PM EDT (10/20) 8:48 AM EDT (10/20)
Length of Visible Light 11h 45m
Length of Day
10h 47m
Full, 97% of the Moon is Illuminated
Oct 20
Full
Oct 26
Last Quarter
Nov 3
New
Nov 10
First Quarter
Nov 17
Full

Hourly Weather History & Observations

Time (EDT) Temp. Windchill Dew Point Humidity Pressure Visibility Wind Dir Wind Speed Gust Speed Precip Events Conditions
12:53 AM 53.1 °F - 45.0 °F 74% 29.67 in 10.0 mi SSW 6.9 mph - 0.00 in Rain Light Rain
1:53 AM 53.1 °F - 45.0 °F 74% 29.65 in 10.0 mi South 10.4 mph - 0.00 in   Mostly Cloudy
2:53 AM 53.1 °F - 45.0 °F 74% 29.64 in 10.0 mi South 9.2 mph - N/A   Mostly Cloudy
3:53 AM 51.1 °F - 46.9 °F 86% 29.65 in 10.0 mi South 9.2 mph - 0.00 in   Overcast
4:53 AM 50.0 °F - 46.9 °F 89% 29.67 in 8.0 mi WSW 8.1 mph - 0.02 in   Mostly Cloudy
5:04 AM 50.0 °F - 46.4 °F 87% 29.68 in 8.0 mi WSW 4.6 mph - N/A   Mostly Cloudy
5:53 AM 50.0 °F - 41.0 °F 71% 29.69 in 10.0 mi WSW 8.1 mph - N/A   Mostly Cloudy
6:53 AM 50.0 °F - 39.9 °F 68% 29.72 in 10.0 mi Calm Calm - N/A   Overcast
7:53 AM 51.1 °F - 37.0 °F 59% 29.74 in 10.0 mi WSW 8.1 mph - N/A   Overcast
8:53 AM 51.1 °F - 35.1 °F 54% 29.77 in 10.0 mi SW 6.9 mph - N/A   Mostly Cloudy
9:53 AM 52.0 °F - 34.0 °F 50% 29.80 in 10.0 mi WSW 9.2 mph 17.3 mph N/A   Overcast
10:53 AM 54.0 °F - 33.1 °F 45% 29.81 in 10.0 mi WSW 9.2 mph - N/A   Mostly Cloudy
11:53 AM 57.0 °F - 32.0 °F 39% 29.81 in 10.0 mi Variable 5.8 mph 16.1 mph N/A   Mostly Cloudy
12:53 PM 57.0 °F - 30.9 °F 37% 29.83 in 10.0 mi West 15.0 mph 20.7 mph N/A   Scattered Clouds
1:53 PM 57.9 °F - 33.1 °F 39% 29.83 in 10.0 mi NW 10.4 mph - N/A   Overcast
2:50 PM 57.2 °F - 28.4 °F 33% 29.84 in 10.0 mi WSW 15.0 mph 24.2 mph N/A   Mostly Cloudy
2:53 PM 57.0 °F - 28.9 °F 34% 29.84 in 10.0 mi WSW 16.1 mph 24.2 mph N/A   Mostly Cloudy
3:53 PM 55.9 °F - 28.9 °F 36% 29.85 in 10.0 mi West 11.5 mph 17.3 mph N/A   Mostly Cloudy
4:53 PM 55.0 °F - 32.0 °F 42% 29.88 in 10.0 mi WSW 11.5 mph - N/A   Partly Cloudy
5:53 PM 53.1 °F - 30.9 °F 43% 29.89 in 10.0 mi WSW 9.2 mph - N/A   Clear
6:53 PM 46.9 °F - 32.0 °F 56% 29.91 in 10.0 mi South 6.9 mph - N/A   Clear
7:53 PM 46.0 °F 43.9 °F 32.0 °F 58% 29.94 in 10.0 mi SSW 4.6 mph - N/A   Clear
8:53 PM 44.1 °F - 33.1 °F 65% 29.96 in 10.0 mi Calm Calm - N/A   Clear
9:53 PM 39.0 °F 36.8 °F 33.1 °F 79% 29.98 in 10.0 mi South 3.5 mph - N/A   Clear
10:53 PM 37.9 °F 34.4 °F 33.1 °F 83% 30.00 in 10.0 mi NE 4.6 mph - N/A   Clear
11:53 PM 35.1 °F 31.0 °F 32.0 °F 89% 30.00 in 10.0 mi South 4.6 mph - N/A   Clear